This is the latest recevied weather packets stored in our database for station/object KJ4RDP-13. If no packets are shown the sender has not sent any weather packets the latest 10 day(s).
| Time | Temp. | Humidity | Pressure | Rain* | Wind** | Luminosity | Snow |
|---|---|---|---|---|---|---|---|
| 1778077342 | 18.33° C | 76% | 1014.2 hPa | 0 mm | - | 206 W/m² | - |
| 1778077040 | 17.78° C | 79% | 1013.8 hPa | 0 mm | - | 209 W/m² | - |
| 1778076738 | 17.22° C | 79% | 1013.8 hPa | 0 mm | - | 176 W/m² | - |
| 1778076435 | 17.22° C | 81% | 1013.8 hPa | 0 mm | - | 130 W/m² | - |
| 1778076132 | 17.22° C | 79% | 1013.8 hPa | 0 mm | - | 92 W/m² | - |
| 1778075829 | 17.22° C | 79% | 1013.8 hPa | 0 mm | - | 88 W/m² | - |
| 1778075525 | 17.22° C | 80% | 1013.8 hPa | 0 mm | - | 92 W/m² | - |
| 1778075222 | 16.67° C | 80% | 1013.8 hPa | 0 mm | - | 81 W/m² | - |
| 1778074918 | 17.22° C | 80% | 1013.1 hPa | 0 mm | - | 75 W/m² | - |
| 1778074615 | 17.22° C | 80% | 1013.8 hPa | 0 mm | - | 103 W/m² | - |
| 1778074312 | 17.22° C | 80% | 1013.8 hPa | 0 mm | - | 102 W/m² | - |
| 1778074009 | 17.22° C | 79% | 1014.2 hPa | 0 mm | - | 89 W/m² | - |
| 1778073706 | 17.22° C | 78% | 1013.8 hPa | 0 mm | - | 71 W/m² | - |
| 1778073404 | 17.22° C | 79% | 1014.2 hPa | 0 mm | - | 71 W/m² | - |
| 1778073100 | 16.67° C | 80% | 1013.8 hPa | 0 mm | - | 93 W/m² | - |
| 1778072796 | 16.67° C | 81% | 1013.8 hPa | 0 mm | - | 84 W/m² | - |
| 1778072494 | 16.67° C | 80% | 1013.8 hPa | 0 mm | - | 65 W/m² | - |
| 1778072192 | 16.67° C | 81% | 1013.8 hPa | 0 mm | - | 63 W/m² | - |
| 1778071889 | 17.22° C | 80% | 1013.5 hPa | 0 mm | - | 77 W/m² | - |
| 1778071587 | 16.67° C | 79% | 1013.1 hPa | 0 mm | - | 68 W/m² | - |
| 1778071285 | 16.67° C | 79% | 1013.1 hPa | 0 mm | - | 60 W/m² | - |
| 1778070982 | 16.67° C | 81% | 1013.1 hPa | 0 mm | - | 46 W/m² | - |
| 1778070681 | 16.67° C | 80% | 1013.5 hPa | 0 mm | - | 49 W/m² | - |
| 1778070377 | 16.67° C | 80% | 1013.1 hPa | 0 mm | - | 52 W/m² | - |
| 1778070075 | 16.67° C | 78% | 1013.1 hPa | 0 mm | - | 54 W/m² | - |
* Rain latest hour (hover to see other rain measurements)
** Current wind speed in m/s (hover to see current wind gust speed)